Regional Weather Roundup
Issued by NWS

Home | Current Version | Previous Version | Graphics & Text | Print | Product List | Glossary On
Versions: 1 2 3 4 5 6 7 8 9 10 11 12 13 14 15 16 17 18 19 20 21 22 23 24 25 26 27 28 29 30 31 32 33 34 35 36 37 38 39 40 41 42 43 44 45 46 47 48 49 50
250
ASUS45 KBOU 181407
RWRCO

WEATHER ROUNDUP FOR COLORADO
NATIONAL WEATHER SERVICE DENVER/BOULDER CO
800 AM MDT FRI AUG 18 2017

NOTE: "FAIR" INDICATES FEW OR NO CLOUDS BELOW 12000 FEET WITH NO
SIGNIFICANT WEATHER AND/OR OBSTRUCTIONS TO VISIBILITY.

COZ001>005-013-030-031-181500-
...NORTHWEST COLORADO...

CITY           SKY/WX    TMP DP  RH WIND       PRES   REMARKS
CRAIG          FAIR      50  41  71 CALM      30.33R
HAYDEN         FAIR      55  39  54 E9        30.35R
MEEKER         FAIR      55  40  56 VRB3      30.34R
RABBIT EARS PA FAIR      50  32  50 W5        30.58R
STEAMBOAT SPGS FAIR      49  39  69 CALM      30.37R
WALDEN         FAIR      48  37  66 SE3       30.44R
$$

COZ006>008-011-181500-
...WEST CENTRAL VALLEYS...

CITY           SKY/WX    TMP DP  RH WIND       PRES   REMARKS
GRAND JUNCTION FAIR      68  41  37 SE15      30.21R
MONTROSE       FAIR      57  41  55 S5        30.30R
EAGLE          FAIR      51  36  56 CALM      30.40R
RIFLE          FAIR      58  40  51 NE6       30.28R
DELTA          FAIR      61  40  45 NE5       30.27R
NUCLA          FAIR      59  32  36 SE7       30.32R
$$

COZ017>023-064>068-181500-
...SOUTHWEST COLORADO...

CITY           SKY/WX    TMP DP  RH WIND       PRES   REMARKS
DURANGO        FAIR      53  36  52 CALM      30.33R
CORTEZ         FAIR      55  39  54 CALM      30.28R
PAGOSA SPRINGS FAIR      55  35  48 CALM      30.41R
TELLURIDE      FAIR      54  32  43 SE5       30.53R
WOLF CREEK PAS FAIR      48  28  46 CALM      30.74R
$$

COZ009-010-012-014-032>034-037-058>063-181500-
...CENTRAL COLORADO...

CITY           SKY/WX    TMP DP  RH WIND       PRES   REMARKS
ASPEN          FAIR      55  37  50 SE5       30.41R
BUENA VISTA    FAIR      52  37  56 CALM      30.44S
COPPER MTN     FAIR      50  30  46 W7        30.68R
BERTHOUD PASS  FAIR      41  36  81 NW22G28   30.68R
COTTONWOOD PAS FAIR      55  30  38 W6        30.55R
GUNNISON       FAIR      43  35  73 CALM      30.48R
KREMMLING      FAIR      50  39  66 CALM      30.44R
LEADVILLE      FAIR      45  35  68 CALM      30.51F
MONARCH PASS   FAIR      46  28  49 NW12      30.79R
SALIDA         FAIR      54  38  56 NW5       30.50R
SUNLIGHT       FAIR      50  30  46 SE3       30.63R
WILKERSON PASS FAIR      50  30  46 CALM      30.67R
$$

COZ069>075-181500-
...SAN LUIS VALLEY/SANGRE DE CRISTO MOUNTAINS...

CITY           SKY/WX    TMP DP  RH WIND       PRES   REMARKS
ALAMOSA        FAIR      50  37  61 S5        30.42R
DEL NORTE      FAIR      54  35  49 W14G21    30.45R
LA VETA PASS   NOT AVBL
SAGUACHE       FAIR      52  36  54 NW9       30.44R
$$

COZ035-036-038>040-181500-
...NORTHERN COLORADO FRONT RANGE...

CITY           SKY/WX    TMP DP  RH WIND       PRES   REMARKS
DENVER INTL AP FAIR      61  47  59 SW5       30.24R
DMNS CITY PARK   N/A     64  47  54 E8        30.24S
AURORA         MOSUNNY   60  48  63 CALM      30.26R
FRONT RANGE AP FAIR      61  50  67 SW5       30.25S
ERIE MUNI ARPT FAIR      61  49  65 CALM      30.28R
BOULDER MUN AP FAIR      61  45  55 CALM      30.23R
CENTENNIAL     FAIR      63  44  50 W5        30.26R
BROOMFIELD     MOSUNNY   64  45  48 CALM      30.26R
FORT COLLINS   FAIR      61  49  64 CALM      30.22R
LONGMONT       FAIR      63  49  59 CALM      30.23S
$$

COZ041-046-047-076>085-087-088-181500-
...PIKES PEAK/PALMER DIVIDE AND SOUTHERN FOOTHILLS...

CITY           SKY/WX    TMP DP  RH WIND       PRES   REMARKS
COLO. SPRINGS  FAIR      72  41  32 N10       30.27R
A. F. ACADEMY  FAIR      60  43  53 N6        30.29R
SCHRIEVER AFB  FAIR      69  39  33 N12       30.27R
CHEYENNE MTN   FAIR      73  36  25 N9        30.26R
ELLICOTT       FAIR     N/A N/A N/A N8        30.25R
FALCON         FAIR      67  37  32 NW10G17   30.32R
FORT CARSON    FAIR      66  46  47 N8        30.24R
LIMON          FAIR      62  51  67 W8        30.23R
MONUMENT HILL  FAIR      61  41  48 W5        30.34S
CANON CITY     SUNNY     68  43  40 W17G26    30.22R
WALSENBURG     FAIR      72  39  30 W5        30.27R
TRINIDAD       FAIR      64  42  44 W12       30.25R
$$

COZ042>045-048>051-090-091-181500-
...NORTHEAST COLORADO...

CITY           SKY/WX    TMP DP  RH WIND       PRES   REMARKS
GREELEY ARPT   FAIR      60  52  74 NW3       30.21R
AKRON          FAIR      61  49  64 W14       30.18R
BURLINGTON     FAIR      65  55  70 NW12      30.13R
WRAY           NOT AVBL
YUMA           FAIR      61  52  72 W8        30.14R
STERLING       FAIR      59  52  77 SW5       30.14R
HOLYOKE        FAIR      64  52  63 N8        30.11R
FORT MORGAN    FAIR      62  47  58 W9        30.19R
$$

COZ086-089-092>099-181500-
...SOUTHEAST COLORADO...

CITY           SKY/WX    TMP DP  RH WIND       PRES   REMARKS
PUEBLO         FAIR      66  45  46 W6        30.17R
LA JUNTA       FAIR      67  50  54 W10       30.15R
LAMAR          FAIR      63  56  78 CALM      30.11R
SPRINGFIELD      N/A     63  60  90 S15G23    30.17R
$$




USA.gov is the U.S. government's official web portal to all federal, state and local government web resources and services.